{"data":{"norad_id":57223,"intl_designator":"2023-094F","name":"STARLINK-5519","alt_names":[],"object_type":"PAYLOAD","status":"ACTIVE","operator":null,"country":"US","launch_date":"2023-07-07","launch_site_code":"AFWTR","launch_vehicle":null,"mission":null,"orbit_class":"UNKNOWN","rcs_meters":null,"size_class":null,"mass_kg":null,"dimensions":null,"purposes":["comms"],"wikipedia_slug":null,"has_3d_model":false,"image_url":null,"decayed_at":null,"tle_current":{"epoch":"2026-05-24T20:03:04.820544Z","epoch_age_seconds":89276,"freshness":"FRESH","line1":"1 57223U 23094F   26144.83547246  .00049628  00000+0  18221-2 0  9997","line2":"2 57223  43.0008 323.8751 0000511 175.7332 184.3524 15.27195675158728","mean_motion":15.27195675,"eccentricity":5.11e-5,"inclination_deg":43.0008,"raan_deg":323.8751,"arg_perigee_deg":175.7332,"mean_anomaly_deg":184.3524,"bstar":0.0018221000000000001,"rev_number":15872,"period_min":94.290471324181,"perigee_km":483.84947925279,"apogee_km":484.55081010898,"semimajor_km":6862.3371446809,"source":"CELESTRAK","updated_at":"2026-05-25T13:38:18.252619Z"}}}